Location: Bluff Heights
(33.7692°N, 118.1592°W)
Time: 12:34:31
(UTC+00:00)

S-56A Canister/Altair - Pass Details

Date: 24 July 2021
Orbit: 632 x 2500 km, 38.9° (Epoch: 25 September)

Event Time Altitude Azimuth Distance (km) Brightness Sun altitude
Rises 05:59:52 0° 291° (WNW) 5,929 12.8 -29.3°
Reaches altitude 10° 06:04:05 10° 291° (WNW) 4,733 12.1 -29.8°
Maximum altitude 06:16:47 85° 205° (SSW) 1,660 9.0 -31.1°
Enters shadow 06:18:46 63° 125° (SE) 1,708 8.9 -31.3°
